Weather in Nurlino

Russia / Republic of Bashkortostan     54°48′49″N   55°34′14″E
temp.,
°C
wind,
m/s
gust,
m/s
humid.,
%
clouds,
%
prec.,
mm/h
press.,
hPa
HPBL,
m
10 may, mon
mon1023:00+17ne11474 0.0 101711
02:00+15wsw11555 0.0 101711
05:00+13se22605 0.0 101910
08:00+16e23560 0.0 1020148
11:00+20se33455 0.0 1020657
14:00+23e3335100 0.0 10212013
17:00+24ese233222 0.0 10202500
20:00+20nne334898 0.0 102146
11 may, tue
tue1123:00+16ne22505 0.0 102223
02:00+14ese476299 0.0 1023113
05:00+13se3456100 0.0 102559
08:00+15se3658100 0.0 1026165
11:00+19se3342100 0.0 1027528
14:00+22se2235100 0.0 10271233
17:00+22e1232100 0.0 10271671
20:00+20ene1145100 0.0 102811
12 may, wed
wed1223:00+16nne114964 0.0 102811
02:00+14ene12495 0.0 102811
05:00+13e11520 0.0 102911
08:00+16ene12480 0.0 1030109
11:00+20ene33370 0.0 1030586
14:00+23ese23315 0.0 10291365
17:00+24e12314 0.0 10281929
20:00+22n11474 0.0 102811
13 may, thu
thu1323:00+18nne11580 0.0 102811
02:00+16nne11650 0.0 102911
05:00+15n11700 0.0 102911
08:00+18ne22645 0.0 1029152
11:00+22ne22472 0.0 1029698
14:00+24nne22405 0.0 10281630
17:00+25n22375 0.0 10271774
20:00+23nnw22495 0.0 102714
14 may, fri
fri1423:00+19nnw22524 0.0 102711
02:00+17n11615 0.0 102711
05:00+16w11655 0.0 102811
08:00+19s00585 0.0 1028106
11:00+24ssw22465 0.0 1028682
14:00+27sw34380 0.0 10272070
17:00+27sw45365 0.0 10262394
20:00+24wsw22515 0.0 102525